Regional Weather Roundup
Issued by NWS

Home | Current Version | Previous Version | Graphics & Text | Print | Product List | Glossary Off
Versions: 1 2 3 4 5 6 7 8 9 10 11 12 13 14 15 16 17 18 19 20 21 22 23 24 25 26 27 28 29 30 31 32 33 34 35 36 37 38 39 40 41 42 43 44 45 46 47 48 49 50

000
ASUS43 KTOP 231859
RWRKS

WEATHER ROUNDUP FOR KANSAS
NATIONAL WEATHER SERVICE GOODLAND KS
100 PM CST SUN NOV 23 2014

NOTE:  "FAIR" INDICATES FEW OR NO CLOUDS BELOW 12,000 FEET WITH NO
SIGNIFICANT WEATHER AND/OR OBSTRUCTIONS TO VISIBILITY.

KSZ001>006-013>018-027>032-041>047-232000-
NORTHWEST KANSAS

CITY           SKY/WX    TMP DP  RH WIND       PRES   REMARKS
GOODLAND       CLOUDY    45   9  23 N35G49    29.68F
HAYS           CLOUDY    43  32  65 N20       29.59S
HILL CITY      CLOUDY    47  27  45 N30G37    29.61F
RUSSELL        RAIN      40  38  93 N30G38    29.56F WCI  28
$$

KSZ061>065-074>080-084>089-232000-
SOUTHWEST KANSAS

CITY           SKY/WX    TMP DP  RH WIND       PRES   REMARKS
DODGE CITY     LGT RAIN  40  35  83 N31G37    29.56F WCI  28
ELKHART          N/A    N/A N/A N/A MISG        N/A
GARDEN CITY    CLOUDY    46  22  38 N30G40    29.60F
GREAT BEND     CLOUDY    45  34  65 N31G43    29.55S
LIBERAL        CLOUDY    45  27  49 N29G44    29.64F
$$

KSZ066>073-081>083-090>101-232000-
SOUTHEAST KANSAS

CITY           SKY/WX    TMP DP  RH WIND       PRES   REMARKS
CHANUTE        LGT RAIN  57  56  96 W5        29.37F FOG
COFFEYVILLE    CLOUDY    62  55  77 SW6       29.35F
HUTCHINSON     LGT RAIN  48  39  71 N30G40    29.44S
MEDICINE LODGE   N/A     50  37  61 N35G49    29.43R
NEWTON         CLOUDY    54  46  76 N23G35    29.41F
PARSONS        CLOUDY    60  55  83 SW6       29.37F
WICHITA INTL   CLOUDY    59  49  69 N12       29.37F
WICHITA JABRA  CLOUDY    56  50  80 N12       29.37F
WINFIELD       CLOUDY    59  50  72 NW12      29.36F
$$

KSZ007>012-019>026-033>040-048>060-102>105-232000-
NORTHEAST KANSAS

CITY           SKY/WX    TMP DP  RH WIND       PRES   REMARKS
CONCORDIA      CLOUDY    45  36  70 N22G33    29.54R
EMPORIA        CLOUDY    56  53  90 NW9       29.37F
LAWRENCE       CLOUDY    57  55  93 SW3       29.37F FOG
MANHATTAN      CLOUDY    48  42  80 N17G31    29.43F
OLATHE IND     CLOUDY    57  55  93 CALM      29.38F FOG
OLATHE EXE     CLOUDY    57  56  96 CALM      29.37F
SALINA         CLOUDY    47  39  74 N31G38    29.48F
TOPEKA BILLARD LGT RAIN  57  56  96 W5        29.38F FOG
TOPEKA FORBES  LGT RAIN  57  54  89 W8        29.38F FOG
$$



USA.gov is the U.S. government's official web portal to all federal, state and local government web resources and services.